Regional Weather Roundup
Issued by NWS

Home | Current Version | Previous Version | Graphics & Text | Print | Product List | Glossary On
Versions: 1 2 3 4 5 6 7 8 9 10 11 12 13 14 15 16 17 18 19 20 21 22 23 24 25 26 27 28 29 30 31 32 33 34 35 36 37 38 39 40 41 42 43 44 45 46 47 48 49 50
816
ASUS43 KDMX 071006
RWRIA

WEATHER ROUNDUP FOR IOWA
NATIONAL WEATHER SERVICE DES MOINES IA
400 AM CST WED DEC 07 2016

NOTE: "FAIR" INDICATES FEW OR NO CLOUDS BELOW 12,000 FEET WITH NO
SIGNIFICANT WEATHER AND/OR OBSTRUCTIONS TO VISIBILITY.

* - THESE STATIONS ARE NOT NWS STATIONS...THUS NOT UNDER NWS
QUALITY CONTROL.  THEY ALSO DO NOT REPORT WEATHER SUCH
AS PRECIPITATION OR FOG.

IAZ001>003-012>014-020>022-031>034-043>046-071100-
   NORTHWEST IOWA

CITY           SKY/WX    TMP DP  RH WIND       PRES   REMARKS
CARROLL *      CLOUDY    16  10  79 W18       30.14R WCI  -1
CHEROKEE *     CLOUDY    13   7  79 W10       30.15R WCI  -1
DENISON *      PTCLDY    14   9  79 W13       30.16R WCI   0
LE MARS *      CLOUDY    12   7  79 W14       30.19R WCI  -3
ORANGE CITY *  CLOUDY    10   5  79 W21G29    30.12R WCI  -9
SHELDON *      CLOUDY    10   7  85 W17G23    30.10R WCI  -7
SIOUX CITY     PTCLDY    16   7  67 NW16G22   30.20R WCI   1
SPENCER        CLOUDY    12   6  77 W28G35    30.09R WCI  -9
STORM LAKE *   CLOUDY    12   7  79 W20G28    30.11R WCI  -6
$$

IAZ055>058-069>071-079>083-090>094-071100-
   SOUTHWEST IOWA

CITY           SKY/WX    TMP DP  RH WIND       PRES   REMARKS
ATLANTIC *     PTCLDY    18  10  73 NW6       30.18R WCI   9
AUDUBON *      PTCLDY    16  10  79 NW8       30.15R WCI   5
CLARINDA *     CLOUDY    23  14  68 N6        30.21R WCI  16
COUNCIL BLFS * PTCLDY    18   9  68 NW14      30.19R WCI   4
CRESTON *      CLOUDY    19  10  68 NW13      30.15F WCI   7
HARLAN  *      PTCLDY    16  10  79 NW10G17   30.21R WCI   3
LAMONI         CLOUDY    23  13  65 NW12      30.15S WCI  12
RED OAK *      CLOUDY    21  12  68 NW13      30.20R WCI   9
SHENANDOAH *   CLOUDY    23  14  68 N7        30.21R WCI  15
$$

IAZ047>049-059>061-072>074-084-071100-
   CENTRAL IOWA

CITY           SKY/WX    TMP DP  RH WIND       PRES   REMARKS
AMES           CLOUDY    19  12  74 W15       30.13S WCI   5
ANKENY *       PTCLDY    19  10  68 W14G22    30.15F WCI   6
BOONE *        CLOUDY    18  10  73 W12G20    30.11S WCI   5
CHARITON *       N/A     23  14  68 NW12      30.14R WCI  12
DES MOINES     CLOUDY    21  11  65 NW9       30.14F WCI  11
GRINNELL*      MOCLDY    20  14  76 W15G21    30.12S WCI   6
KNOXVILLE *    CLOUDY    23  12  63 W14       30.13S WCI  11
MARSHALLTOWN   CLOUDY    18  12  77 W17       30.10S WCI   3
NEWTON *       CLOUDY    19  12  73 W15       30.12S WCI   5
PELLA *        PTCLDY    23  13  67 W13G18    30.15S WCI  11
PERRY *          N/A     19  14  79 W14       30.15S WCI   6
$$

IAZ004>006-015-016-023>025-035-036-071100-
   NORTH CENTRAL IOWA

CITY           SKY/WX    TMP DP  RH WIND       PRES   REMARKS
ALGONA *       CLOUDY    14   9  79 W22       30.07R WCI  -4
CLARION *      PTCLDY    16  10  79 W18       30.08S WCI  -1
ESTHERVILLE    CLOUDY    11   6  81 W25       30.04S WCI -10
FORT DODGE *   CLOUDY    16   7  67 W13       30.11S WCI   2
MASON CITY     CLOUDY    13   7  77 W23       30.05R WCI  -6
FOREST CITY *    N/A     14  10  85 W17G24    30.04R WCI  -3
WEBSTER CITY * PTCLDY    16  12  86 W16       30.09S WCI   0
IOWA FALLS *     N/A     18  12  79 W18G28    30.09S WCI   2
$$

IAZ007>011-017>019-026>030-037>042-050>054-066-071100-
   NORTHEAST IOWA

CITY           SKY/WX    TMP DP  RH WIND       PRES   REMARKS
CEDAR RAPIDS   CLOUDY    20  16  84 W13       30.09S WCI   7
CHARLES CITY * FLURRIES  16  10  79 W17       30.04S WCI   0
CLINTON *      PTCLDY    23  18  81 W18G25    30.09R WCI   9
DECORAH *      FLURRIES  16  10  79 W10G18    29.99S WCI   3
DUBUQUE        FLURRIES  19  13  77 W23G30    30.04R WCI   2
MONTICELLO *   MOCLDY    21  14  73 W15G23    30.08R WCI   8
OELWEIN *      MOCLDY    18  12  79 W18G24    30.05S WCI   2
WATERLOO       MOCLDY    18  11  74 W15       30.08S WCI   4
$$

IAZ064-065-067-068-078-071100-
   EAST CENTRAL IOWA

CITY           SKY/WX    TMP DP  RH WIND       PRES   REMARKS
DAVENPORT      CLOUDY    24  16  71 W23G31    30.10R WCI   9
IOWA CITY      CLOUDY    24  15  68 W15       30.13S WCI  11
MUSCATINE *    PTCLDY    27  16  63 W16       30.13F WCI  14
QUAD CITIES    PTCLDY    26  15  63 W16       30.10R WCI  14
$$

IAZ062-063-075>077-085>089-095>099-071100-
   SOUTHEAST IOWA

CITY           SKY/WX    TMP DP  RH WIND       PRES   REMARKS
BURLINGTON     CLOUDY    27  16  63 NW12G18   30.13R WCI  17
FAIRFIELD *    CLOUDY    25  14  63 W10       30.13S WCI  15
FORT MADISON * CLOUDY    27  16  63 NW13G21   30.14S WCI  16
KEOKUK *       CLOUDY    28  16  59 NW9       30.14S WCI  20
OSKALOOSA *      N/A     23  16  73 W15       30.13F WCI  10
CENTERVILLE *    N/A     25  14  63 W9        30.15R WCI  15
OTTUMWA        CLOUDY    24  13  62 W14       30.13S WCI  12
WASHINGTON *   CLOUDY    25  16  68 W17       30.13F WCI  11
$$

ABBREVIATIONS USED IN REMARKS
   TC - TEMPERATURES IN CELSIUS
  WCI - WIND CHILL INDEX
   HX - HEAT INDEX
  VSB - VISIBILITY
$$





USA.gov is the U.S. government's official web portal to all federal, state and local government web resources and services.